Location: Offham
(51.2833°N, 0.3667°E)
Time: 18:59:50
(UTC+00:00)

Daily predictions for brighter satellites

Satellite Brightness Start Highest point End
(mag) Time Altitude Azimuth Time Altitude Azimuth Time Altitude Azimuth
Cosmos 2084 Rocket 3.4 16:35:00 10° SW 16:39:10 76° SE 16:43:23 10° NE
SMAP 3.3 16:38:24 10° SE 16:42:51 46° ENE 16:47:19 10° N
Cosmos 540 Rocket 3.7 16:38:29 10° NNW 16:43:27 45° ENE 16:48:21 10° SE
Cosmos 2297 Rocket 4.4 16:46:02 10° NNW 16:46:39 10° N 16:47:17 10° N
Cosmos 1869 4.3 16:45:21 10° SE 16:48:06 22° E 16:50:50 10° NE
SWARM A 4.2 16:44:58 10° N 16:48:18 86° E 16:51:37 10° S
YAOGAN 1 4.1 16:47:20 10° E 16:49:44 15° ENE 16:52:09 10° NNE
IGS 5A 3.3 16:45:56 10° SSE 16:49:54 73° ENE 16:53:52 10° N
Cosmos 1763 Rocket 3.5 16:46:46 10° NNW 16:51:57 60° ENE 16:57:03 10° SE
SL-16 R/B 2.6 16:46:15 10° NNE 16:52:33 78° ESE 16:58:48 10° SSW
SAR-Lupe-5 4.4 16:52:00 10° NNE 16:54:35 53° ESE 16:57:11 10° S
Landsat 7 4.1 16:50:36 10° SE 16:55:00 44° ENE 16:59:27 10° N
Cosmos 1340 Rocket 4.5 16:52:38 10° SW 16:56:08 33° WNW 16:59:38 10° N
Timation 1 Rocket 4.3 16:51:33 10° NNW 16:57:31 67° NE 17:03:27 10° SE
RESURS DK-1 2.2 16:53:39 10° NNW 16:57:39 64° NE 17:01:37 10° SE
Cosmos 1140 Rocket 3.5 16:54:33 10° SSW 16:59:41 70° ESE 17:04:49 10° NNE
CZ-4C R/B 3.0 16:56:08 10° W 17:00:36 39° NNW 17:06:18 10° NE
Aureole 3 Rocket 3.8 16:59:01 10° SE 17:01:11 18° E 17:03:30 10° NE
UNK 3.9 17:00:56 10° NNE 17:05:30 55° ESE 17:10:01 10° S
Meteor 1-28 Rocket 2.9 17:02:18 10° NNE 17:05:41 88° WNW 17:09:03 10° SSW
Meteor 2-12 Rocket 4.4 17:02:26 10° N 17:08:30 62° ENE 17:14:30 10° SSE
Cosmos 1400 Rocket 4.3 17:08:29 10° ESE 17:10:37 15° E 17:11:07 14° ENE
Cosmos 1536 Rocket 4.4 17:07:17 10° N 17:11:06 27° ENE 17:14:53 10° SE
SJ-12 3.7 17:07:35 10° SSE 17:11:19 56° ENE 17:15:03 10° N
Okean 2 Rocket 4.4 17:14:54 10° SE 17:18:01 19° E 17:20:03 14° NE
Cosmos 1269 Rocket 4.2 17:14:03 10° SSW 17:19:19 77° WNW 17:24:37 10° NNE
CORIOLIS 4.3 17:15:37 10° SSE 17:20:59 81° WSW 17:26:23 10° NNW
IRS-1C 4.1 17:17:09 10° SSE 17:22:28 85° ENE 17:27:50 10° NNW
ATLAS CENTAUR R/B 3.1 17:22:21 10° WNW 17:24:50 18° NNW 17:27:19 10° NNE
SL-12 R/B(2) 4.4 17:18:31 10° SSW 17:26:22 63° ESE 17:35:47 11° NE
COSMO-SKYMED 1 3.8 17:26:49 19° E 17:27:18 19° E 17:30:17 10° SE
Resurs 01 Rocket 3.3 17:30:11 16° NE 17:30:11 16° NE 17:32:11 10° NNE
Thor Agena Rocket 4.4 17:24:35 10° S 17:29:45 55° W 17:34:56 10° NNW
Cosmos 1943 Rocket 2.3 17:24:38 10° S 17:30:07 57° ESE 17:35:17 12° NE
Cosmos 1782 Rocket 4.2 17:26:53 10° SSW 17:31:15 59° WNW 17:35:38 10° N
Timation 2 Rocket 4.2 17:24:40 10° SSW 17:31:27 65° ESE 17:38:13 10° NE
Cosmos 841 Rocket 3.9 17:27:39 10° NNW 17:32:37 40° NE 17:37:34 10° SE
Cosmos 2233 Rocket 4.3 17:26:52 10° SSW 17:33:09 72° WNW 17:39:31 10° N
Cosmos 2058 2.9 17:29:21 10° N 17:33:15 53° ENE 17:37:09 10° SSE
Cosmos 1300 Rocket 4.5 17:29:28 10° SSW 17:33:43 50° WNW 17:37:59 10° N
Cosmos 2251 Rocket 3.9 17:29:19 10° S 17:34:17 42° ESE 17:38:36 14° NE
BREEZE-M DEB (TANK) 2.8 17:34:35 10° SW 17:37:01 43° SSE 17:39:49 21° E
Cosmos 2082 Rocket 2.1 17:32:13 10° NNW 17:37:51 78° ENE 17:43:28 10° SE
ATLAS 2AS CENTAUR R/B 3.2 17:31:48 10° NW 17:38:10 39° NNE 17:42:14 21° E
Cosmos 1346 Rocket 4.1 17:36:41 10° NNE 17:38:39 20° NE 17:38:39 20° NE
Cosmos 2061 Rocket 4.3 17:34:36 10° SSW 17:40:53 70° WNW 17:47:07 10° N
Cosmos 2278 Rocket 2.2 17:37:58 10° SSW 17:43:35 68° ESE 17:48:32 14° NE
IRAS Rocket 4.3 17:38:44 10° SE 17:44:07 54° ENE 17:49:29 10° N
Cosmos 1602 2.9 17:41:30 10° N 17:44:35 74° E 17:47:37 10° SSE
MOS 1 Rocket 3.0 17:41:49 10° SSE 17:46:10 78° ENE 17:50:44 10° N
Cosmos 1975 Rocket 4.3 17:42:57 10° NNW 17:47:04 43° W 17:51:12 10° SSW
Cosmos 468 Rocket 3.9 17:41:51 10° NNW 17:47:07 89° ENE 17:52:16 10° SSE
AQUARIUS 4.3 17:45:03 10° S 17:49:27 75° WSW 17:53:53 10° NNW
Cosmos 1464 Rocket 4.1 17:44:25 10° SSE 17:50:30 54° E 17:56:32 10° NNE
ARIANE 5 R/B 3.2 17:46:19 10° S 17:51:12 57° WSW 17:56:09 10° NNW
CZ-2D R/B 3.4 17:47:50 10° SSE 17:51:57 62° ENE 17:56:08 10° N
Cosmos 1862 2.9 17:52:05 10° N 17:55:43 67° ENE 17:59:19 10° SSE
USA 215 4.1 17:49:29 10° SSE 17:55:49 51° SW 18:02:11 10° WNW
PSLV R/B 3.5 17:53:51 10° SE 17:57:45 51° ENE 18:01:40 10° N
ARIANE 6 FM1 Upper Stage 4.5 17:56:03 10° NW 17:58:49 18° N 17:59:56 16° NNE
Geosat FO 4.2 17:57:42 16° SSE 17:59:50 71° WSW 18:02:43 10° NW
Cosmos 2151 Rocket 3.6 17:56:35 10° S 18:01:00 59° E 18:05:04 12° NNE
Cosmos 1190 Rocket 4.0 17:56:49 10° S 18:02:01 60° ESE 18:05:26 21° NE
ISS -3.8 18:00:06 10° WSW 18:03:25 66° SSE 18:03:52 57° ESE
Cosmos 2034 Rocket 4.2 17:58:36 10° SSE 18:04:29 47° E 18:10:27 10° NNE
Cosmos 1812 2.3 18:02:19 10° SSW 18:05:11 64° WNW 18:06:21 31° N
Cosmos 676 Rocket 4.4 18:00:15 10° S 18:05:11 41° ESE 18:06:43 33° ENE
SKYMED 2 3.5 18:03:51 17° NNE 18:07:07 63° ESE 18:11:25 10° S
Okean 1 Rocket 3.3 18:03:31 10° SSE 18:07:42 45° E 18:08:25 41° ENE
Cosmos 1656 Rocket 4.3 18:03:01 10° SSE 18:07:51 31° ESE 18:08:00 31° ESE
Cosmos 220 Rocket 4.1 18:07:26 10° NNW 18:11:16 45° NE 18:11:16 45° NE
Cosmos 407 Rocket 3.9 18:07:20 10° SW 18:12:27 61° WNW 18:17:08 12° NNE
Sich 1 Rocket 3.7 18:09:02 10° S 18:13:26 53° E 18:14:56 36° NE
COSMOS 2406 3.1 18:07:49 10° NNW 18:13:33 80° ENE 18:19:01 11° SSE
USA 281 3.6 18:11:29 31° E 18:13:43 40° NE 18:19:45 10° NNW
Cosmos 1954 Rocket 4.0 18:09:15 10° S 18:14:26 62° ESE 18:16:53 31° NE
Cosmos 1092 Rocket 4.1 18:09:32 10° N 18:15:38 50° ENE 18:21:37 10° SSE
BlueWalker 3 4.3 18:15:26 10° S 18:15:39 11° SSE 18:15:39 11° SSE
SL-19 R/B 4.0 18:14:05 10° SSE 18:19:17 85° ENE 18:24:34 10° NNW
Cosmos 2026 Rocket 3.9 18:14:40 10° N 18:20:41 59° ENE 18:26:45 10° SSE
SJ 16-02 1.1 18:19:20 10° SSW 18:23:38 76° ESE 18:24:29 56° NE
Cosmos 1072 Rocket 4.4 18:18:04 10° S 18:24:13 85° W 18:30:22 10° N
Cosmos 44 Rocket 3.3 18:19:31 10° SW 18:24:20 77° NW 18:26:14 38° NNE
YAOGAN 1 2.5 18:20:45 10° SSE 18:25:01 84° WSW 18:29:18 10° NNW
SPOT 1/Viking Rocket 3.9 18:21:39 10° S 18:26:47 66° WSW 18:31:59 10° NNW
Cosmos 2344 3.8 18:23:36 10° NW 18:31:22 81° NE 18:38:34 22° SE
Cosmos 2297 Rocket 4.2 18:30:43 10° N 18:33:09 13° NNE 18:33:09 13° NNE
SL-16 R/B 4.5 18:30:31 10° N 18:35:33 26° NW 18:40:34 10° WSW
Meteor 2-3 Rocket 3.6 18:30:54 10° NNW 18:36:39 83° ENE 18:42:18 10° SSE
Spot 4 Rocket 4.4 18:32:29 10° S 18:37:32 62° WSW 18:42:36 10° NNW
Resurs 1-3 3.9 18:35:17 10° S 18:39:33 65° W 18:43:51 10° NNW
Nadezhda 4 Rocket 4.5 18:36:49 10° NNW 18:43:01 61° W 18:49:07 10° S
Cosmos 1400 Rocket 3.2 18:41:54 10° SSW 18:45:39 55° WNW 18:45:47 55° WNW
Cosmos 304 Rocket 3.6 18:43:43 10° SSW 18:48:28 85° WNW 18:48:47 77° N
Cosmos 371 Rocket 3.2 18:45:29 10° SSW 18:50:18 85° WNW 18:50:35 79° N
CZ-4C R/B 3.7 18:45:48 10° WNW 18:50:26 27° N 18:51:49 25° NNE
Cosmos 1627 Rocket 4.4 18:47:18 10° N 18:53:29 88° W 18:59:39 10° S
Okean 2 Rocket 3.7 18:51:18 10° SSW 18:55:36 53° WNW 18:57:21 32° NNW
COSMO-SKYMED 1 3.2 19:03:10 50° W 19:03:10 50° W 19:06:55 10° SW
Resurs 01 Rocket 3.2 19:07:36 28° NNW 19:07:36 28° NNW 19:09:44 10° NNW
Geosat 4.3 19:05:27 56° SSW 19:06:14 64° WSW 19:11:14 10° NW
BREEZE-M DEB (TANK) 3.8 19:08:23 10° WSW 19:11:47 73° S 19:11:47 73° S
Cosmos 1943 Rocket 3.6 19:09:07 10° WSW 19:14:09 33° NW 19:16:48 22° N
Cosmos 2227 Rocket 4.5 19:19:18 10° N 19:20:29 12° N 19:20:29 12° N
Cosmos 2278 Rocket 3.8 19:23:13 10° WSW 19:28:08 30° NW 19:30:23 23° N
ATLAS 2AS CENTAUR R/B 2.6 19:22:53 10° NW 19:29:40 82° SW 19:29:40 82° SW
Cosmos 1634 Rocket 4.4 19:29:53 10° SSW 19:42:27 10° N 19:34:50 56° SW
Cosmos 2369 Rocket 4.3 19:31:02 10° SSW 19:31:59 15° SSW 19:31:59 15° SSW
USA 281 3.6 19:58:22 58° W 19:58:22 58° W 20:04:32 10° NNW
SJ 16-02 4.1 19:59:21 10° W 20:01:03 16° WNW 20:01:03 16° WNW
CZ-4C R/B 4.4 20:34:38 10° NW 20:36:46 22° NNW 20:36:46 22° NNW
